EHI
0 0 0 0 0 0 0 0 0 0 0 0 0 0 0 0 0 0 0 0 0 0 0 0 0 0 0 0 0 0 0 0 0 0 0 0 0 0 0 0 0 0 0 0
0 0 0 0 0 0 0 0 0 0 0 0 0 0 0 0 0 0 0 0 0 0 0 0 0 0 0 0 0 0 0 0 0 0 0 0 0 0 0 0 0 0 0 0
0 0 0 0 0 0 0 0 0 0 0 0 0 0 0 0 0 0 0 0 0 0 0 0 0 0 0 0 0 0 0 0 0 0 0 0 0 0 0 0 0 0 0 0
0 0 0 0 0 0 0 0 0 0 0 0 0 0 0 0 0 0 0 0 0 0 0 0 0 0 0 0 0 0 0 0 0 0 0 0 0 0 0 0 0 0 0 0
0 0 0 0 0 0 0 0 0 0 0 0 0 0 0 0 0 0 0 0 0 0 0 0 0 0 0 0 0 0 0 0 0 0 0 0 0 0 0 0 0 0 0 0
0 0 0 0 0 0 0 0 0 0 0 0 0 0 0 0 0 0 0 0 0 0 0 0 0 0 0 0 0 0 0 0 0 0 0 0 0 0 0 0 0 0 0 0
0 0 0 0 0 0 0 0 0 0 0 0 0 0 0 0 0 0 0 0 0 0 0 0 0 0 0 0 0 0 0 0 0 0 0 0 0 0 0 0 0 0 0 0
0 0 0 0 0 0 0 0 0 0 0 0 0 0 0 0 0 0 0 0 0 0 0 0 0 0 0 0 0 0 0 0 0 0 0 0 0 0 0 0 0 0 0 0
0 0 0 0 0 0 0 0 0 0 0 0 0 0 0 0 0 0 0 0 0 0 0 0 0 0 0 0 0 0 0 0 0 0 0 0 0 0 0 0 0 0 0 0
0 0 0 0 0 0 0 0 0 0 0 0 0 0 0 0 0 0 0 0 0 0 0 0 0 0 0 0 0 0 0 0 0 0 0 0 0 0 0 0 0 0 0 0
0 0 0 0 0 0 0 0 0 0 0 0 0 0 0 0 0 0 0 0 0 0 0 0 0 0 0 0 0 0 0 0 0 0 0 0 0 0 0 0 0 0 0 0
0 0 0 0 0 0 0 0 0 0 0 0 0 0 0 0 0 0 0 0 0 0 0 0 0 0 0 0 0 0 0 0 0 0 0 0 0 0 0 0 0 0 0 0
0 0 0 0 0 0 0 0 0 0 0 0 0 0 0 0 0 0 0 0 0 0 0 0 0 0 0 0 0 0 0 0 0 0 0 0 0 0 0 0 0 0 0 0
0 0 0 0 0 0 0 0 0 0 0 0 0 0 0 0 0 0 0 0 0 0 0 0 0 0 0 0 0 0 0 0 0 0 0 0 0 0 0 0 0 0 0 0
0 0 0 0 0 0 0 0 0 0 0 0 0 0 0 0 0 0 0 0 0 0 0 0 0 0 0 0 0 0 0 0 0 0 0 0 0 0 0 0 0 0 0 0
0 0 0 0 0 0 0 0 0 0 0 0 0 0 0 0 0 0 0 0 0 0 0 0 0 0 0 0 0 0 0 0 0 0 0 0 0 0 0 0 0 0 0 0
0 0 0 0 0 0 0 0 0 0 0 0 0 0 0 0 0 0 0 0 0 0 0 0 0 0 0 0 0 0 0 0 0 0 0 0 0 0 0 0 0 0 0 0
0 0 0 0 0 0 0 0 0 0 0 0 0 0 0 0 0 0 0 0 0 0 0 0 0 0 0 0 0 0 0 0 0 0 0 0 0 0 0 0 0 0 0 0
0 0 0 0 0 0 0 0 0 0 0 0 0 0 0 0 0 0 0 0 0 0 0 0 0 0 0 0 0 0 0 0 0 0 0 0 0 0 0 0 0 0 0 0
0 0 0 0 0 0 0 0 0 0 0 0 0 0 0 0 0 0 0 0 0 0 0 0 0 0 0 0 0 0 0 0 0 0 0 0 0 0 0 0 0 0 0 0
0 0 0 0 0 0 0 0 0 0 0 0 0 0 0 0 0 0 0 0 0 0 0 0 0 0 0 0 0 0 0 0 0 0 0 0 0 0 0 0 0 0 0 0
0 0 0 0 0 0 0 0 0 0 0 0 0 0 0 0 0 0 0 0 0 0 0 0 0 0 0 0 0 0 0 0 0 0 0 0 0 0 0 0 0 0 0 0
0 0 0 0 0 0 0 0 0 0 0 0 0 0 0 0 0 0 0 0 0 0 0 0 0 0 0 0 0 0 0 0 0 0 0 0 0 0 0 0 0 0 0 0
0 0 0 0 0 0 0 0 0 0 0 0 0 0 0 0 0 0 0 0 0 0 0 0 0 0 0 0 0 0 0 0 0 0 0 0 0 0 0 0 0 0 0 0
0 0 0 0 0 0 0 0 0 0 0 0 0 0 0 0 0 0 0 0 0 0 0 0 0 0 0 0 0 0 0 0 0 0 0 0 0 0 0 0 0 0 0 0
0 0 0 0 0 0 0 0 0 0 0 0 0 0 0 0 0 0 0 0 0 0 0 0 0 0 0 0 0 0 0 0 0 0 0 0 0 0 0 0 0 0 0 0
0 0 0 0 0 0 0 0 0 0 0 0 0 0 0 0 0 0 0 0 0 0 0 0 0 0 0 0 0 0 0 0 0 0 0 0 0 0 0 0 0 0 0 0
Wind_Speed
1 2 1 1 1 1 3 4 5 5 5 7 7 8 10 9 8 8 9 9 9 9 8 9 9 10 10 11 11 13 13 13 13 13 13 13 13 13 14 14 15 14 14 14
1 2 1 2 1 2 2 2 3 4 7 5 6 6 8 9 8 9 10 10 10 10 10 10 10 10 11 11 12 12 12 12 13 13 14 13 13 13 13 13 13 13 13 13
3 4 2 5 5 4 3 3 4 5 6 6 8 9 10 7 6 8 9 10 10 10 9 9 9 9 10 11 11 11 12 12 13 13 13 14 14 14 13 13 12 13 12 12
1 4 4 4 1 2 2 5 5 5 5 6 7 9 6 2 4 6 7 8 8 8 9 8 7 9 9 9 10 11 11 11 12 12 13 13 12 13 12 11 11 9 11 12
2 3 8 3 2 3 2 5 3 3 6 7 5 6 2 3 4 4 4 5 5 6 6 7 8 9 9 10 9 10 11 12 12 12 12 12 12 12 11 11 10 10 10 11
3 2 7 2 2 2 3 4 2 2 5 6 7 7 4 5 4 4 4 5 5 6 6 7 8 8 9 10 10 11 12 13 12 12 12 11 10 10 10 11 11 12 11 10
4 5 9 3 2 4 2 4 2 2 3 4 3 4 6 6 5 4 4 5 6 6 6 7 8 8 9 10 10 11 12 12 12 12 11 9 8 9 10 11 11 11 10 10
4 4 9 3 6 5 6 1 1 2 2 3 4 5 6 6 6 7 7 7 7 7 8 8 8 8 10 11 11 12 12 12 12 11 10 10 9 9 9 9 9 9 8 9
9 7 3 3 4 3 3 0 1 1 2 2 3 4 5 5 5 5 6 7 6 7 9 9 8 8 10 12 12 12 12 13 12 13 10 9 8 9 8 7 7 8 7 7
4 5 3 2 3 3 2 1 2 2 2 2 2 3 4 5 6 6 7 7 7 8 10 11 10 10 10 12 12 13 14 13 12 11 11 8 8 8 7 7 7 8 7 7
4 2 3 2 2 2 3 3 3 3 3 3 2 3 3 4 5 6 8 7 8 8 10 12 12 12 13 12 12 13 14 13 13 12 11 9 9 7 10 7 10 10 6 5
6 6 6 5 3 4 4 3 3 3 3 4 4 3 3 4 4 5 7 7 9 10 12 12 13 13 13 12 12 13 14 14 12 11 10 10 10 10 14 15 18 18 16 13
4 4 5 6 5 4 4 4 5 5 4 3 2 3 3 3 5 6 7 8 9 11 13 13 13 14 14 13 14 14 15 15 13 12 11 12 11 11 10 11 14 16 16 15
4 6 5 4 4 5 6 6 7 6 5 3 2 2 3 4 5 7 8 9 10 11 12 12 13 14 14 14 15 15 15 16 15 11 11 11 11 10 9 9 8 7 10 14
4 4 6 6 7 6 6 6 5 4 2 2 3 3 4 5 7 8 9 10 11 11 11 12 13 15 14 14 16 16 14 12 12 11 10 11 10 10 9 9 8 7 6 8
6 7 7 7 7 6 5 4 4 3 2 1 2 3 4 5 7 8 8 8 10 12 13 13 13 15 15 15 15 13 11 19 18 12 11 11 10 10 9 8 7 6 5 5
9 7 6 5 6 5 4 4 5 4 3 1 1 3 5 6 6 8 10 9 9 10 11 11 13 15 15 14 13 10 10 12 20 13 10 11 10 10 9 8 7 6 5 7
6 6 7 6 7 7 6 5 5 5 3 1 1 3 4 6 7 10 11 12 11 10 9 10 13 13 13 13 10 8 9 9 10 10 11 11 11 10 9 8 7 7 4 6
7 8 7 7 7 8 7 6 5 4 3 2 2 3 4 5 6 8 9 9 10 11 12 13 21 15 13 15 14 7 9 10 11 10 10 15 13 10 10 9 8 6 5 4
8 8 8 8 7 6 6 6 6 4 3 2 1 3 5 6 7 8 9 7 5 6 12 14 13 11 11 11 15 8 9 10 11 11 10 10 11 11 10 10 9 7 5 4
9 8 8 8 6 6 7 7 6 5 3 2 1 3 5 7 7 7 7 7 7 10 12 17 11 11 10 12 14 8 9 10 11 10 10 10 10 10 10 10 9 8 7 6
9 8 9 8 8 6 5 5 5 5 3 1 1 3 5 7 8 7 5 5 8 17 11 7 9 14 17 15 8 9 10 10 10 9 8 8 8 9 9 9 8 7 7 6
9 9 9 9 8 7 6 4 5 4 3 1 2 3 4 5 5 5 7 7 8 16 10 7 15 21 20 10 8 9 10 11 10 9 7 6 6 7 7 8 7 7 6 5
9 9 8 7 8 7 6 5 4 3 2 2 3 4 4 4 5 3 5 12 16 15 8 12 20 20 17 8 8 9 10 10 10 9 8 6 5 5 5 6 6 6 5 6
9 9 9 9 9 6 6 6 4 3 2 2 4 4 3 3 4 6 7 8 13 13 7 12 18 18 11 8 9 10 10 11 12 11 9 7 6 6 6 5 5 6 5 5
8 8 8 7 6 5 6 6 4 3 3 2 2 2 2 3 4 5 5 7 8 11 8 7 8 11 8 8 9 10 10 11 12 11 11 9 8 7 6 6 7 6 6 6
7 6 5 5 4 5 6 6 5 4 3 2 1 2 3 4 4 5 6 6 6 6 6 6 7 7 8 8 9 10 10 11 11 12 12 11 9 7 7 8 7 7 6 7
Wind_Direction
265 12 274 229 271 219 168 184 208 254 269 283 296 307 310 317 326 336 344 344 347 347 343 338 337 335 335 334 335 335 334 334 333 331 331 332 334 336 337 337 338 335 335 334
279 4 300 223 220 171 161 190 235 265 275 262 299 313 315 322 333 339 339 342 346 344 341 337 335 335 334 331 331 332 330 329 331 334 335 336 335 338 338 336 335 336 336 336
287 323 339 269 210 187 210 220 221 246 261 304 318 321 316 322 343 337 339 345 344 340 335 329 327 329 328 324 324 327 327 328 331 333 335 336 337 339 337 334 333 333 333 336
330 18 281 270 155 175 239 258 232 240 275 297 295 300 301 4 351 338 343 342 335 329 326 320 318 324 322 319 321 324 325 327 330 333 333 333 336 337 334 331 330 327 327 332
88 295 279 283 236 189 228 287 238 245 288 302 312 312 310 50 11 349 344 332 320 317 313 314 319 322 323 322 322 326 329 331 330 330 331 332 337 334 332 330 328 329 330 331
131 260 263 253 162 135 94 301 286 258 295 313 341 335 326 25 11 359 346 330 322 320 317 318 316 321 324 322 323 326 328 328 326 326 327 325 330 330 329 329 332 335 334 334
176 237 267 239 154 116 123 269 306 310 305 319 309 279 324 360 2 357 342 328 324 320 317 313 314 322 321 319 317 318 321 322 323 323 318 317 323 324 326 331 332 332 334 335
162 217 266 206 140 167 211 237 310 313 320 313 300 314 337 349 347 347 338 330 326 324 320 316 315 318 316 315 312 314 315 317 317 315 314 323 318 316 320 325 328 327 329 335
191 211 251 183 170 165 147 118 349 345 350 340 323 332 341 341 340 339 332 326 325 321 318 317 314 313 312 312 313 314 314 312 311 310 307 307 307 308 311 316 321 324 328 334
238 258 232 163 118 97 85 84 62 69 54 36 348 347 348 340 343 338 329 328 327 326 324 319 316 316 309 309 313 314 312 311 309 309 306 301 303 305 309 308 309 313 322 327
242 247 132 157 143 119 99 94 93 85 76 63 44 15 353 338 334 330 331 326 327 324 318 315 318 316 315 316 314 313 311 310 311 311 306 302 300 296 301 292 298 310 312 308
213 200 170 186 152 130 123 114 109 107 90 66 52 15 351 335 324 322 323 322 322 321 320 318 318 315 315 315 315 314 315 316 315 313 311 311 306 303 301 305 312 318 320 319
165 146 134 130 121 117 118 110 99 94 98 88 50 20 355 328 319 321 320 321 321 319 318 316 316 314 315 318 318 315 314 315 314 315 313 311 310 310 311 313 316 321 324 325
151 121 122 143 136 116 111 109 103 94 86 80 49 16 353 329 321 324 320 317 315 315 316 316 316 315 317 318 318 317 317 317 320 315 316 318 321 321 320 319 319 319 322 323
148 132 137 128 117 115 117 119 115 112 100 57 25 6 347 335 323 315 312 317 320 319 319 320 319 317 318 320 322 323 323 322 325 329 332 331 329 326 322 320 316 313 312 316
122 106 115 126 136 137 133 137 142 150 138 72 354 341 330 315 305 306 312 322 324 320 318 317 315 315 320 323 326 326 326 334 342 340 334 330 326 324 323 322 319 313 309 305
137 151 158 158 161 156 152 152 153 153 152 160 317 328 330 328 325 327 328 327 317 305 303 306 313 315 319 325 325 328 333 335 342 339 332 330 328 329 328 325 321 317 309 302
161 160 159 157 160 154 144 138 139 145 155 162 15 356 349 342 331 321 321 323 322 320 315 318 316 322 327 327 331 340 337 333 335 336 335 337 343 341 336 331 328 327 324 322
127 125 123 125 136 141 144 147 148 145 139 111 41 356 326 312 306 307 314 320 323 328 325 320 330 338 328 334 349 340 335 337 339 339 341 348 352 347 348 346 345 344 340 341
120 120 117 116 119 130 141 144 144 142 137 109 39 347 333 323 317 316 316 304 286 290 302 323 337 329 325 340 355 342 339 341 341 343 348 352 353 355 355 355 357 359 360 359
137 135 134 135 133 137 145 147 149 151 146 123 44 331 315 310 315 319 320 319 320 320 327 343 339 326 339 355 353 343 342 342 341 345 349 353 353 354 356 358 1 6 8 5
148 147 148 147 143 142 142 144 148 150 150 152 317 315 318 321 325 319 291 272 306 327 340 336 327 343 359 359 344 342 342 340 339 342 348 349 349 349 350 353 355 358 358 354
152 153 154 156 153 145 137 145 156 158 167 197 285 308 313 307 308 312 320 319 321 331 345 329 340 353 1 357 343 343 341 338 336 340 342 340 338 337 338 343 344 344 341 340
149 150 147 136 130 139 158 173 170 168 185 241 266 276 288 308 309 274 280 314 328 337 344 339 352 358 1 352 343 342 340 335 334 336 334 329 325 322 322 324 325 325 326 329
144 140 142 149 161 173 170 159 160 180 212 251 272 274 270 263 276 300 309 312 326 342 341 342 352 357 357 343 344 342 338 336 341 340 331 325 316 312 308 308 308 308 308 307
149 158 164 173 168 157 154 159 170 184 193 228 272 288 305 301 294 298 306 313 325 343 344 338 340 347 345 343 342 341 339 337 339 337 332 328 317 306 298 297 296 294 292 291
131 137 141 142 153 159 162 169 172 178 185 194 236 295 316 319 320 323 325 330 334 338 338 340 341 341 341 343 343 343 340 339 340 340 339 335 327 316 302 293 287 284 283 281